QPF
0.00 0.00 0.00 0.00 0.00 0.00 0.00 0.00 0.00 0.00 0.00 0.00 0.00 0.00 0.00 0.00 0.00 0.00 0.00 0.00 0.00 0.00 0.00 0.00 0.00 0.00 0.00 0.00 0.00 0.00 0.00 0.00 0.00 0.00 0.00 0.00 0.00 0.00 0.00 0.00 0.00 0.00
0.00 0.00 0.00 0.00 0.00 0.00 0.00 0.00 0.00 0.00 0.00 0.00 0.00 0.00 0.00 0.00 0.00 0.00 0.00 0.00 0.00 0.00 0.00 0.00 0.00 0.00 0.00 0.00 0.00 0.00 0.00 0.00 0.00 0.00 0.00 0.00 0.00 0.00 0.00 0.00 0.00 0.00
0.00 0.00 0.00 0.00 0.00 0.00 0.00 0.00 0.00 0.00 0.00 0.00 0.00 0.00 0.00 0.00 0.00 0.00 0.00 0.00 0.00 0.00 0.00 0.00 0.00 0.00 0.00 0.00 0.00 0.00 0.00 0.00 0.00 0.00 0.00 0.00 0.00 0.00 0.00 0.00 0.00 0.00
0.00 0.00 0.00 0.00 0.00 0.00 0.00 0.00 0.00 0.00 0.00 0.00 0.00 0.00 0.00 0.00 0.00 0.00 0.00 0.00 0.00 0.00 0.00 0.00 0.00 0.00 0.00 0.00 0.00 0.00 0.00 0.00 0.00 0.00 0.00 0.00 0.00 0.00 0.00 0.00 0.00 0.00
0.00 0.00 0.00 0.00 0.00 0.00 0.00 0.00 0.00 0.00 0.00 0.00 0.00 0.00 0.00 0.00 0.00 0.00 0.00 0.00 0.00 0.00 0.00 0.00 0.00 0.00 0.00 0.00 0.00 0.00 0.00 0.00 0.00 0.00 0.00 0.00 0.00 0.00 0.00 0.00 0.00 0.00
0.00 0.00 0.00 0.00 0.00 0.00 0.00 0.00 0.00 0.00 0.00 0.00 0.00 0.00 0.00 0.00 0.00 0.00 0.00 0.00 0.00 0.00 0.00 0.00 0.00 0.00 0.00 0.00 0.00 0.00 0.00 0.00 0.00 0.00 0.00 0.00 0.00 0.00 0.00 0.00 0.00 0.00
0.00 0.00 0.00 0.00 0.00 0.00 0.00 0.00 0.00 0.00 0.00 0.00 0.00 0.00 0.00 0.00 0.00 0.00 0.00 0.00 0.00 0.00 0.00 0.00 0.00 0.00 0.00 0.00 0.00 0.00 0.00 0.00 0.00 0.00 0.00 0.00 0.00 0.00 0.00 0.00 0.00 0.00
0.00 0.00 0.00 0.00 0.00 0.00 0.00 0.00 0.00 0.00 0.00 0.00 0.00 0.00 0.00 0.00 0.00 0.00 0.00 0.00 0.00 0.00 0.00 0.00 0.00 0.00 0.00 0.00 0.00 0.00 0.00 0.00 0.00 0.00 0.00 0.00 0.00 0.00 0.00 0.00 0.00 0.00
0.00 0.00 0.00 0.00 0.00 0.00 0.00 0.00 0.00 0.00 0.00 0.00 0.00 0.00 0.00 0.00 0.00 0.00 0.00 0.00 0.00 0.00 0.00 0.00 0.00 0.00 0.00 0.00 0.00 0.00 0.00 0.00 0.00 0.00 0.00 0.00 0.00 0.00 0.00 0.00 0.00 0.00
0.00 0.00 0.00 0.00 0.00 0.00 0.00 0.00 0.00 0.00 0.00 0.00 0.00 0.00 0.00 0.00 0.00 0.00 0.00 0.00 0.00 0.00 0.00 0.00 0.00 0.00 0.00 0.00 0.00 0.00 0.00 0.00 0.00 0.00 0.00 0.00 0.00 0.00 0.00 0.00 0.00 0.00
0.00 0.00 0.00 0.00 0.00 0.00 0.00 0.00 0.00 0.00 0.00 0.00 0.00 0.00 0.00 0.00 0.00 0.00 0.00 0.00 0.00 0.00 0.00 0.00 0.00 0.00 0.00 0.00 0.00 0.00 0.00 0.00 0.00 0.00 0.00 0.00 0.00 0.00 0.00 0.00 0.00 0.00
0.00 0.00 0.00 0.00 0.00 0.00 0.00 0.00 0.00 0.00 0.00 0.00 0.00 0.00 0.00 0.00 0.00 0.00 0.00 0.00 0.00 0.00 0.00 0.00 0.00 0.00 0.00 0.00 0.00 0.00 0.00 0.00 0.00 0.00 0.00 0.00 0.00 0.00 0.00 0.00 0.00 0.00
0.00 0.00 0.00 0.00 0.00 0.00 0.00 0.00 0.00 0.00 0.00 0.00 0.00 0.00 0.00 0.00 0.00 0.00 0.00 0.00 0.00 0.00 0.00 0.00 0.00 0.00 0.00 0.00 0.00 0.00 0.00 0.00 0.00 0.00 0.00 0.00 0.00 0.00 0.00 0.00 0.00 0.00
0.00 0.00 0.00 0.00 0.00 0.00 0.00 0.00 0.00 0.00 0.00 0.00 0.00 0.00 0.00 0.00 0.00 0.00 0.00 0.00 0.00 0.00 0.00 0.00 0.00 0.00 0.00 0.00 0.00 0.00 0.00 0.00 0.00 0.00 0.00 0.00 0.00 0.00 0.00 0.00 0.00 0.00
0.00 0.00 0.00 0.00 0.00 0.00 0.00 0.00 0.00 0.00 0.00 0.00 0.00 0.00 0.00 0.00 0.00 0.00 0.00 0.00 0.00 0.00 0.00 0.00 0.00 0.00 0.00 0.00 0.00 0.00 0.00 0.00 0.00 0.00 0.00 0.00 0.00 0.00 0.00 0.00 0.00 0.00
0.00 0.00 0.00 0.00 0.00 0.00 0.00 0.00 0.00 0.00 0.00 0.00 0.00 0.00 0.00 0.00 0.00 0.00 0.00 0.00 0.00 0.00 0.00 0.00 0.00 0.00 0.00 0.00 0.00 0.00 0.00 0.00 0.00 0.00 0.00 0.00 0.00 0.00 0.00 0.00 0.00 0.00
0.00 0.00 0.00 0.00 0.00 0.00 0.00 0.00 0.00 0.00 0.00 0.00 0.00 0.00 0.00 0.00 0.00 0.00 0.00 0.00 0.00 0.00 0.00 0.00 0.00 0.00 0.00 0.00 0.00 0.00 0.00 0.00 0.00 0.00 0.00 0.00 0.00 0.00 0.00 0.00 0.00 0.00
0.00 0.00 0.00 0.00 0.00 0.00 0.00 0.00 0.00 0.00 0.00 0.00 0.00 0.00 0.00 0.00 0.00 0.00 0.00 0.00 0.00 0.00 0.00 0.00 0.00 0.00 0.00 0.00 0.00 0.00 0.00 0.00 0.00 0.00 0.00 0.00 0.00 0.00 0.00 0.00 0.00 0.00
0.00 0.00 0.00 0.00 0.00 0.00 0.00 0.00 0.00 0.00 0.00 0.00 0.00 0.00 0.00 0.00 0.00 0.00 0.00 0.00 0.00 0.00 0.00 0.00 0.00 0.00 0.00 0.00 0.00 0.00 0.00 0.00 0.00 0.00 0.00 0.00 0.00 0.00 0.00 0.00 0.00 0.00
0.00 0.00 0.00 0.00 0.00 0.00 0.00 0.00 0.00 0.00 0.00 0.00 0.00 0.00 0.00 0.00 0.00 0.00 0.00 0.00 0.00 0.00 0.00 0.00 0.00 0.00 0.00 0.00 0.00 0.00 0.00 0.00 0.00 0.00 0.00 0.00 0.00 0.00 0.00 0.00 0.00 0.00
0.00 0.00 0.00 0.00 0.00 0.00 0.00 0.00 0.00 0.00 0.00 0.00 0.00 0.00 0.00 0.00 0.00 0.00 0.00 0.00 0.00 0.00 0.00 0.00 0.00 0.00 0.00 0.00 0.00 0.00 0.00 0.00 0.00 0.00 0.00 0.00 0.00 0.00 0.00 0.00 0.00 0.00
0.00 0.00 0.00 0.00 0.00 0.00 0.00 0.00 0.00 0.00 0.00 0.00 0.00 0.00 0.00 0.00 0.00 0.00 0.00 0.00 0.00 0.00 0.00 0.00 0.00 0.00 0.00 0.00 0.00 0.00 0.00 0.00 0.00 0.00 0.00 0.00 0.00 0.00 0.00 0.00 0.00 0.00
0.00 0.00 0.00 0.00 0.00 0.00 0.00 0.00 0.00 0.00 0.00 0.00 0.00 0.00 0.00 0.00 0.00 0.00 0.00 0.00 0.00 0.00 0.00 0.00 0.00 0.00 0.00 0.00 0.00 0.00 0.00 0.00 0.00 0.00 0.00 0.00 0.00 0.00 0.00 0.00 0.00 0.00
0.00 0.00 0.00 0.00 0.00 0.00 0.00 0.00 0.00 0.00 0.00 0.00 0.00 0.00 0.00 0.00 0.00 0.00 0.00 0.00 0.00 0.00 0.00 0.00 0.00 0.00 0.00 0.00 0.00 0.00 0.00 0.00 0.00 0.00 0.00 0.00 0.00 0.00 0.00 0.00 0.00 0.00
0.00 0.00 0.00 0.00 0.00 0.00 0.00 0.00 0.00 0.00 0.00 0.00 0.00 0.00 0.00 0.00 0.00 0.00 0.00 0.00 0.00 0.00 0.00 0.00 0.00 0.00 0.00 0.00 0.00 0.00 0.00 0.00 0.00 0.00 0.00 0.00 0.00 0.00 0.00 0.00 0.00 0.00
0.00 0.00 0.00 0.00 0.00 0.00 0.00 0.00 0.00 0.00 0.00 0.00 0.00 0.00 0.00 0.00 0.00 0.00 0.00 0.00 0.00 0.00 0.00 0.00 0.00 0.00 0.00 0.00 0.00 0.00 0.00 0.00 0.00 0.00 0.00 0.00 0.00 0.00 0.00 0.00 0.00 0.00
MSLP
1018.66 1018.66 1018.74 1018.70 1018.62 1018.54 1018.62 1018.62 1018.54 1018.50 1018.46 1018.34 1018.30 1018.26 1018.10 1017.94 1017.70 1017.70 1017.70 1017.62 1017.58 1017.58 1017.50 1017.38 1017.26 1017.14 1016.90 1016.62 1016.38 1016.14 1015.98 1015.78 1015.54 1015.26 1015.06 1014.82 1014.70 1014.58 1014.54 1014.46 1014.38 1014.42
1018.82 1018.86 1018.82 1018.78 1018.78 1018.74 1018.74 1018.66 1018.70 1018.66 1018.66 1018.54 1018.42 1018.30 1018.14 1018.02 1017.98 1017.94 1018.02 1017.98 1017.90 1017.90 1017.78 1017.66 1017.54 1017.46 1017.26 1017.02 1016.74 1016.50 1016.30 1016.06 1015.86 1015.54 1015.38 1015.10 1015.02 1014.86 1014.82 1014.74 1014.70 1014.54
1019.06 1019.10 1019.10 1019.14 1019.14 1019.06 1018.98 1018.86 1018.82 1018.82 1018.78 1018.74 1018.54 1018.38 1018.30 1018.22 1018.22 1018.18 1018.22 1018.26 1018.30 1018.26 1018.18 1018.06 1017.86 1017.74 1017.54 1017.30 1017.02 1016.78 1016.62 1016.46 1016.26 1015.90 1015.62 1015.46 1015.26 1015.22 1015.18 1015.06 1015.02 1014.94
1019.34 1019.34 1019.34 1019.30 1019.22 1019.26 1019.14 1019.14 1019.10 1019.06 1018.98 1018.98 1018.90 1018.70 1018.54 1018.54 1018.50 1018.50 1018.54 1018.54 1018.58 1018.58 1018.50 1018.34 1018.18 1018.02 1017.82 1017.54 1017.26 1017.10 1016.90 1016.70 1016.54 1016.22 1015.94 1015.70 1015.58 1015.54 1015.54 1015.42 1015.34 1015.26
1019.66 1019.62 1019.54 1019.46 1019.38 1019.38 1019.38 1019.46 1019.46 1019.38 1019.30 1019.22 1019.06 1018.90 1018.78 1018.82 1018.90 1018.86 1018.86 1018.86 1018.82 1018.82 1018.70 1018.58 1018.38 1018.26 1018.06 1017.78 1017.62 1017.42 1017.14 1016.98 1016.66 1016.46 1016.30 1016.18 1015.98 1015.86 1015.86 1015.78 1015.74 1015.74
1019.90 1019.86 1019.78 1019.74 1019.66 1019.62 1019.70 1019.70 1019.66 1019.58 1019.50 1019.38 1019.30 1019.10 1019.06 1019.10 1019.22 1019.22 1019.18 1019.14 1019.06 1018.98 1018.90 1018.74 1018.58 1018.46 1018.26 1018.06 1017.82 1017.70 1017.54 1017.22 1016.98 1016.74 1016.58 1016.54 1016.38 1016.22 1016.18 1016.18 1016.14 1016.14
1020.22 1020.10 1020.10 1019.98 1019.94 1019.86 1019.90 1019.90 1019.82 1019.74 1019.62 1019.50 1019.34 1019.34 1019.30 1019.34 1019.42 1019.46 1019.42 1019.38 1019.26 1019.18 1019.10 1018.98 1018.82 1018.62 1018.46 1018.26 1018.06 1017.90 1017.66 1017.42 1017.18 1016.98 1016.86 1016.82 1016.66 1016.66 1016.54 1016.50 1016.58 1016.58
1020.34 1020.26 1020.22 1020.22 1020.22 1020.18 1020.14 1020.10 1020.06 1019.98 1019.86 1019.66 1019.66 1019.62 1019.46 1019.50 1019.62 1019.66 1019.66 1019.54 1019.38 1019.34 1019.22 1019.14 1019.02 1018.82 1018.62 1018.46 1018.26 1018.10 1017.90 1017.62 1017.42 1017.26 1017.10 1017.06 1016.94 1017.02 1016.98 1016.86 1016.86 1016.90
1020.42 1020.42 1020.38 1020.42 1020.46 1020.42 1020.38 1020.30 1020.22 1020.14 1019.98 1019.94 1019.94 1019.90 1019.74 1019.86 1019.98 1019.90 1019.82 1019.66 1019.50 1019.46 1019.34 1019.30 1019.18 1019.02 1018.82 1018.62 1018.46 1018.34 1018.18 1017.94 1017.70 1017.54 1017.42 1017.34 1017.30 1017.30 1017.26 1017.14 1017.10 1017.14
1020.66 1020.62 1020.54 1020.62 1020.66 1020.62 1020.54 1020.46 1020.34 1020.26 1020.14 1020.18 1020.18 1020.10 1020.14 1020.26 1020.18 1020.10 1019.94 1019.82 1019.66 1019.54 1019.50 1019.46 1019.34 1019.18 1018.94 1018.74 1018.62 1018.50 1018.38 1018.18 1017.98 1017.78 1017.66 1017.62 1017.54 1017.46 1017.42 1017.38 1017.34 1017.30
1020.86 1020.82 1020.82 1020.82 1020.82 1020.74 1020.70 1020.54 1020.46 1020.46 1020.38 1020.42 1020.38 1020.34 1020.34 1020.38 1020.34 1020.26 1020.10 1019.98 1019.90 1019.82 1019.70 1019.58 1019.46 1019.30 1019.10 1018.86 1018.70 1018.58 1018.50 1018.34 1018.18 1018.06 1017.94 1017.90 1017.78 1017.70 1017.58 1017.58 1017.54 1017.54
1021.02 1020.94 1020.98 1021.02 1020.94 1020.86 1020.82 1020.78 1020.66 1020.58 1020.54 1020.50 1020.50 1020.50 1020.46 1020.50 1020.50 1020.38 1020.22 1020.14 1020.06 1019.98 1019.86 1019.74 1019.54 1019.34 1019.18 1019.02 1018.82 1018.70 1018.54 1018.46 1018.34 1018.22 1018.14 1018.06 1017.94 1017.90 1017.82 1017.66 1017.62 1017.66
1021.14 1021.10 1021.06 1021.06 1021.06 1020.98 1020.90 1020.86 1020.86 1020.74 1020.66 1020.62 1020.54 1020.54 1020.58 1020.58 1020.58 1020.50 1020.42 1020.30 1020.22 1020.10 1019.98 1019.82 1019.58 1019.38 1019.22 1019.02 1018.86 1018.78 1018.70 1018.58 1018.46 1018.38 1018.34 1018.26 1018.22 1018.14 1018.02 1017.86 1017.74 1017.66
1021.22 1021.14 1021.06 1021.06 1021.06 1021.02 1020.98 1020.98 1020.94 1020.86 1020.78 1020.70 1020.62 1020.54 1020.54 1020.62 1020.70 1020.66 1020.54 1020.42 1020.38 1020.30 1020.14 1019.90 1019.74 1019.50 1019.26 1019.06 1018.90 1018.86 1018.78 1018.70 1018.62 1018.58 1018.58 1018.50 1018.42 1018.34 1018.26 1018.14 1017.98 1017.86
1021.22 1021.18 1021.10 1021.06 1021.02 1020.98 1021.06 1021.06 1021.02 1020.98 1020.94 1020.86 1020.74 1020.66 1020.50 1020.50 1020.66 1020.62 1020.62 1020.58 1020.50 1020.42 1020.26 1020.10 1019.94 1019.70 1019.46 1019.26 1019.10 1019.02 1018.98 1018.90 1018.82 1018.74 1018.74 1018.66 1018.62 1018.54 1018.46 1018.42 1018.34 1018.18
1021.18 1021.14 1021.18 1021.14 1021.10 1021.06 1021.10 1021.14 1021.06 1020.98 1020.94 1020.90 1020.82 1020.74 1020.66 1020.54 1020.50 1020.62 1020.66 1020.70 1020.62 1020.54 1020.46 1020.30 1020.14 1019.86 1019.58 1019.34 1019.18 1019.10 1019.14 1019.06 1018.98 1018.90 1018.90 1018.86 1018.86 1018.78 1018.70 1018.62 1018.50 1018.42
1021.22 1021.26 1021.26 1021.26 1021.18 1021.10 1021.10 1021.14 1021.10 1021.02 1020.94 1020.94 1020.98 1020.86 1020.78 1020.70 1020.74 1020.78 1020.86 1020.78 1020.74 1020.70 1020.62 1020.46 1020.30 1020.02 1019.78 1019.58 1019.38 1019.14 1019.14 1019.18 1019.14 1019.18 1019.06 1019.10 1019.14 1019.10 1018.98 1018.78 1018.62 1018.50
1021.34 1021.38 1021.34 1021.30 1021.26 1021.18 1021.14 1021.10 1021.06 1021.02 1020.94 1020.90 1020.90 1020.90 1020.78 1020.74 1020.78 1020.90 1020.90 1020.90 1020.86 1020.82 1020.74 1020.62 1020.46 1020.18 1019.94 1019.78 1019.58 1019.42 1019.30 1019.34 1019.30 1019.26 1019.22 1019.26 1019.30 1019.22 1019.10 1018.94 1018.82 1018.70
1021.26 1021.30 1021.34 1021.30 1021.22 1021.14 1021.10 1021.06 1021.06 1021.02 1020.98 1020.90 1020.90 1020.86 1020.78 1020.82 1020.82 1020.86 1020.90 1020.94 1020.90 1020.86 1020.86 1020.74 1020.62 1020.34 1020.14 1019.98 1019.78 1019.66 1019.54 1019.58 1019.54 1019.46 1019.54 1019.50 1019.38 1019.26 1019.18 1019.06 1018.98 1018.86
1021.30 1021.26 1021.30 1021.30 1021.26 1021.22 1021.18 1021.14 1021.10 1021.10 1020.98 1020.94 1020.90 1020.90 1020.90 1020.90 1020.86 1020.82 1020.90 1020.90 1020.90 1020.90 1020.94 1020.86 1020.70 1020.50 1020.30 1020.18 1020.02 1019.86 1019.74 1019.78 1019.86 1019.70 1019.70 1019.78 1019.66 1019.46 1019.30 1019.22 1019.06 1018.98
1021.34 1021.30 1021.26 1021.22 1021.18 1021.18 1021.18 1021.18 1021.10 1021.06 1021.02 1020.98 1020.94 1020.98 1020.94 1020.90 1020.86 1020.82 1020.74 1020.86 1020.90 1020.98 1020.98 1020.94 1020.82 1020.66 1020.46 1020.30 1020.18 1020.06 1019.94 1019.94 1020.06 1019.98 1019.90 1019.86 1019.74 1019.58 1019.42 1019.30 1019.18 1019.10
1021.34 1021.38 1021.34 1021.30 1021.26 1021.26 1021.22 1021.18 1021.14 1021.14 1021.10 1020.98 1020.90 1020.94 1020.90 1020.90 1020.86 1020.78 1020.70 1020.78 1020.90 1020.94 1021.02 1021.02 1020.90 1020.78 1020.58 1020.42 1020.30 1020.22 1020.14 1020.18 1020.18 1020.18 1020.10 1019.98 1019.82 1019.66 1019.50 1019.42 1019.34 1019.18
1021.26 1021.34 1021.34 1021.30 1021.30 1021.30 1021.26 1021.18 1021.18 1021.10 1021.06 1020.98 1020.98 1020.94 1020.90 1020.82 1020.78 1020.74 1020.66 1020.66 1020.82 1020.86 1020.98 1021.02 1020.94 1020.78 1020.66 1020.50 1020.38 1020.30 1020.26 1020.26 1020.26 1020.26 1020.22 1020.10 1019.98 1019.78 1019.62 1019.50 1019.38 1019.22
1021.18 1021.18 1021.22 1021.22 1021.26 1021.26 1021.18 1021.18 1021.14 1021.10 1021.06 1020.98 1020.98 1020.86 1020.86 1020.78 1020.66 1020.74 1020.66 1020.58 1020.62 1020.74 1020.74 1020.86 1020.86 1020.74 1020.62 1020.54 1020.42 1020.34 1020.30 1020.34 1020.30 1020.22 1020.30 1020.26 1020.02 1019.78 1019.62 1019.54 1019.30 1018.86
1021.14 1021.10 1021.14 1021.14 1021.30 1021.26 1021.18 1021.18 1021.10 1021.06 1020.98 1020.94 1020.90 1020.86 1020.82 1020.74 1020.66 1020.70 1020.62 1020.58 1020.46 1020.50 1020.46 1020.62 1020.74 1020.66 1020.58 1020.54 1020.42 1020.34 1020.30 1020.30 1020.26 1020.22 1020.14 1020.26 1020.26 1019.94 1019.66 1019.50 1019.38 1019.18
1021.06 1021.10 1021.14 1021.18 1021.22 1021.22 1021.18 1021.10 1021.02 1021.02 1020.94 1020.90 1020.82 1020.82 1020.78 1020.78 1020.74 1020.70 1020.66 1020.58 1020.50 1020.38 1020.34 1020.46 1020.62 1020.62 1020.54 1020.50 1020.42 1020.30 1020.26 1020.26 1020.26 1020.18 1020.26 1020.22 1020.10 1019.98 1019.82 1019.50 1019.42 1019.30
Thickness
5695 5693 5691 5691 5690 5690 5689 5687 5685 5683 5682 5682 5681 5679 5679 5679 5679 5679 5678 5676 5675 5674 5674 5674 5674 5674 5676 5678 5680 5680 5680 5681 5683 5686 5688 5688 5688 5689 5689 5690 5691 5690
5690 5688 5687 5686 5686 5685 5684 5683 5681 5679 5678 5676 5676 5675 5675 5675 5675 5673 5671 5670 5668 5666 5666 5666 5667 5667 5668 5671 5672 5673 5673 5674 5677 5679 5681 5682 5682 5682 5683 5684 5684 5685
5685 5683 5682 5681 5681 5680 5679 5678 5677 5674 5673 5672 5671 5670 5669 5669 5669 5667 5664 5662 5661 5659 5659 5659 5660 5661 5662 5663 5665 5666 5667 5667 5670 5673 5675 5676 5676 5675 5676 5677 5678 5679
5680 5677 5676 5675 5675 5674 5673 5671 5670 5668 5667 5665 5665 5664 5663 5664 5662 5660 5658 5656 5654 5652 5652 5653 5653 5654 5655 5657 5658 5659 5660 5661 5663 5666 5668 5669 5669 5668 5668 5670 5671 5671
5674 5671 5670 5669 5669 5668 5666 5664 5662 5661 5660 5658 5658 5658 5657 5656 5653 5651 5651 5649 5647 5646 5646 5647 5647 5647 5648 5650 5651 5651 5652 5654 5657 5659 5660 5660 5661 5661 5661 5662 5663 5663
5668 5666 5665 5663 5662 5661 5659 5656 5654 5654 5653 5652 5652 5652 5651 5649 5644 5643 5643 5642 5641 5640 5640 5640 5640 5641 5642 5642 5644 5644 5644 5647 5649 5651 5651 5652 5653 5653 5653 5653 5654 5655
5662 5660 5659 5657 5656 5655 5652 5650 5648 5647 5646 5646 5646 5645 5645 5642 5638 5636 5636 5634 5634 5634 5634 5633 5634 5634 5635 5635 5636 5637 5638 5640 5642 5642 5642 5644 5645 5645 5645 5645 5646 5647
5657 5655 5654 5652 5650 5648 5646 5644 5642 5640 5639 5638 5638 5638 5638 5635 5632 5630 5629 5627 5627 5627 5627 5627 5627 5627 5628 5629 5629 5630 5631 5633 5633 5634 5635 5636 5637 5636 5637 5638 5639 5639
5652 5650 5649 5647 5644 5642 5639 5638 5635 5634 5632 5631 5631 5631 5630 5627 5625 5623 5622 5621 5621 5621 5621 5620 5619 5620 5621 5622 5623 5623 5624 5625 5625 5626 5626 5628 5628 5629 5630 5630 5631 5631
5647 5644 5643 5641 5639 5635 5633 5632 5630 5628 5626 5624 5624 5624 5622 5620 5617 5616 5615 5615 5615 5614 5615 5614 5613 5614 5614 5615 5616 5616 5617 5617 5617 5618 5619 5620 5620 5621 5622 5623 5623 5623
5640 5638 5637 5635 5633 5631 5628 5626 5624 5622 5620 5618 5618 5617 5616 5613 5611 5610 5609 5609 5608 5607 5607 5607 5607 5607 5608 5609 5610 5610 5610 5610 5610 5610 5612 5612 5613 5614 5616 5616 5616 5616
5634 5632 5631 5630 5628 5627 5624 5621 5618 5616 5614 5612 5611 5611 5610 5607 5604 5602 5602 5603 5601 5600 5600 5600 5601 5601 5602 5603 5603 5603 5604 5603 5603 5603 5604 5605 5606 5607 5608 5609 5610 5610
5629 5627 5626 5625 5623 5622 5619 5616 5613 5611 5608 5606 5604 5603 5604 5602 5598 5596 5596 5596 5595 5594 5593 5594 5595 5596 5596 5598 5598 5598 5598 5597 5597 5597 5598 5599 5599 5600 5601 5602 5603 5604
5624 5622 5621 5620 5617 5615 5613 5610 5608 5605 5603 5601 5599 5597 5596 5597 5593 5590 5590 5590 5588 5588 5588 5588 5589 5590 5591 5592 5592 5592 5592 5591 5591 5591 5592 5593 5593 5594 5594 5594 5596 5599
5621 5618 5616 5614 5612 5610 5607 5604 5603 5600 5598 5596 5594 5593 5591 5592 5590 5587 5586 5585 5584 5583 5583 5583 5584 5584 5586 5587 5587 5587 5586 5586 5586 5586 5587 5587 5587 5588 5588 5589 5590 5592
5617 5614 5611 5609 5607 5605 5602 5600 5597 5596 5594 5592 5590 5589 5587 5587 5586 5584 5582 5580 5580 5579 5578 5579 5579 5579 5581 5582 5582 5582 5582 5581 5581 5581 5581 5581 5581 5582 5582 5584 5585 5587
5613 5610 5607 5604 5603 5600 5598 5596 5593 5592 5591 5589 5586 5585 5583 5582 5581 5579 5578 5576 5576 5575 5574 5574 5575 5575 5577 5577 5578 5578 5577 5577 5576 5576 5577 5576 5575 5577 5578 5579 5581 5582
5609 5606 5603 5601 5599 5597 5595 5593 5591 5589 5588 5586 5584 5582 5580 5579 5578 5576 5574 5573 5572 5571 5570 5571 5570 5572 5572 5572 5573 5574 5573 5573 5572 5571 5572 5571 5571 5572 5573 5575 5577 5578
5606 5603 5600 5597 5596 5593 5592 5590 5588 5586 5585 5583 5581 5579 5577 5576 5574 5573 5571 5569 5569 5567 5566 5566 5566 5567 5568 5568 5569 5569 5569 5568 5567 5567 5567 5566 5567 5568 5569 5570 5571 5572
5603 5600 5598 5595 5593 5591 5589 5587 5585 5584 5582 5580 5578 5576 5575 5573 5571 5571 5569 5567 5566 5565 5563 5563 5563 5563 5564 5564 5564 5564 5564 5563 5562 5562 5562 5561 5563 5564 5565 5565 5567 5568
5600 5598 5595 5593 5591 5588 5587 5585 5582 5581 5579 5578 5576 5574 5572 5571 5569 5568 5567 5565 5563 5562 5560 5559 5559 5559 5560 5559 5560 5560 5560 5559 5558 5557 5557 5557 5558 5560 5560 5561 5563 5564
5598 5595 5594 5591 5589 5587 5584 5582 5580 5579 5577 5576 5574 5572 5570 5569 5568 5566 5566 5564 5561 5559 5558 5557 5556 5557 5556 5556 5556 5556 5556 5555 5554 5553 5553 5553 5554 5555 5556 5557 5558 5559
5597 5594 5592 5589 5587 5585 5582 5581 5578 5577 5575 5574 5571 5570 5569 5567 5566 5565 5564 5563 5560 5558 5557 5555 5554 5554 5553 5553 5553 5553 5552 5552 5551 5550 5550 5549 5551 5552 5552 5553 5554 5556
5595 5593 5590 5588 5586 5583 5581 5579 5577 5574 5573 5572 5570 5568 5567 5566 5565 5564 5562 5561 5560 5558 5556 5554 5552 5552 5551 5551 5550 5550 5549 5548 5548 5548 5547 5546 5547 5549 5550 5550 5552 5553
5594 5592 5589 5586 5584 5582 5580 5577 5576 5574 5572 5571 5569 5567 5566 5564 5564 5562 5560 5560 5559 5557 5556 5554 5551 5551 5550 5549 5548 5547 5547 5546 5545 5545 5545 5544 5544 5546 5547 5548 5548 5550
5593 5591 5588 5586 5583 5581 5579 5577 5575 5573 5571 5570 5568 5567 5565 5563 5562 5560 5559 5558 5557 5556 5555 5553 5550 5549 5548 5546 5546 5545 5544 5544 5543 5542 5541 5541 5541 5542 5543 5544 5545 5546